Columbus AFB, MS

4:49 AM CDT on April 24, 2018 (GMT -0500)
Columbus Air Force Base

Weather History for KCBM - January, 2013

Change the Weather History Date:

Monday, January 14, 2013

  Actual Average Record
Temperature  
Mean Temperature 37 °F -  
Max Temperature 41 °F 51 °F 62 °F (2002)
Min Temperature 33 °F 33 °F 15 °F (2011)
Degree Days  
Heating Degree Days 28    
Moisture  
Dew Point 33 °F    
Average Humidity 89    
Maximum Humidity 93    
Minimum Humidity 81    
Precipitation  
Precipitation 1.31 in - - ()
Sea Level Pressure  
Sea Level Pressure 30.22 in    
Wind  
Wind Speed 12 mph (North)    
Max Wind Speed 18 mph    
Max Gust Speed 24 mph    
Visibility 8 miles    
Events Rain    
Averages and records for this station are not official NWS values.
T = Trace of Precipitation, MM = Missing Value Source: NWS Daily Summary

Daily Weather History Graph

Daily Weather History Graph

Search for Another Location

Airport or City:

Astronomy

Jan. 14, 2013 Rise Set
Actual Time 6:58 AM CST 5:07 PM CST
Civil Twilight 6:31 AM CST 5:34 PM CST
Nautical Twilight 6:00 AM CST 6:05 PM CST
Astronomical Twilight 5:30 AM CST 6:35 PM CST
Moon 8:43 AM CST (1/14) 8:40 PM CST (1/14)
Length of Visible Light 11h 03m
Length of Day
10h 09m
Waxing Crescent, 11% of the Moon is Illuminated
Jan 14
Waxing Crescent
Jan 18
First Quarter
Jan 26
Full
Feb 3
Last Quarter
Feb 10
New

Hourly Weather History & Observations

Time (CST) Temp. Windchill Dew Point Humidity Pressure Visibility Wind Dir Wind Speed Gust Speed Precip Events Conditions
12:04 AM 41.0 °F 33.1 °F 35.6 °F 81% 30.19 in 10.0 mi NNE 15.0 mph - N/A   Overcast
12:52 AM 41.0 °F 33.1 °F 35.6 °F 81% 30.19 in 10.0 mi NNE 15.0 mph 20.7 mph N/A   Overcast
12:55 AM 40.5 °F 32.8 °F 35.4 °F 82% 30.19 in 10.0 mi NE 13.8 mph 20.7 mph N/A   Overcast
12:57 AM 41.0 °F 33.9 °F 35.6 °F 81% 30.20 in 10.0 mi NNE 12.7 mph - N/A   Overcast
1:11 AM 41.0 °F 32.8 °F 35.6 °F 81% 30.20 in 10.0 mi NNE 16.1 mph - N/A   Overcast
1:55 AM 40.3 °F 33.9 °F 35.4 °F 83% 30.20 in 10.0 mi NNE 10.4 mph - N/A   Overcast
1:58 AM 41.0 °F 34.3 °F 35.6 °F 81% 30.20 in 10.0 mi NNE 11.5 mph - N/A   Overcast
2:55 AM 40.1 °F 33.6 °F 35.6 °F 84% 30.21 in 10.0 mi NNE 10.4 mph - N/A   Overcast
3:55 AM 39.9 °F 32.5 °F 35.4 °F 84% 30.20 in 10.0 mi NNE 12.7 mph - N/A   Overcast
4:24 AM 39.2 °F 33.0 °F 35.6 °F 87% 30.21 in 10.0 mi North 9.2 mph 18.4 mph N/A   Overcast
4:55 AM 39.4 °F 31.1 °F 35.4 °F 86% 30.19 in 10.0 mi North 15.0 mph - N/A   Overcast
5:18 AM 39.2 °F 30.5 °F 35.6 °F 87% 30.18 in 10.0 mi NNE 16.1 mph - N/A   Overcast
5:40 AM 39.2 °F 33.6 °F 35.6 °F 87% 30.21 in 10.0 mi NNE 8.1 mph - N/A   Overcast
5:55 AM 39.4 °F 31.8 °F 35.2 °F 85% 30.20 in 10.0 mi NNE 12.7 mph - N/A   Overcast
6:16 AM 39.2 °F 31.2 °F 35.6 °F 87% 30.20 in 10.0 mi NNW 13.8 mph - N/A   Overcast
6:45 AM 39.2 °F - 33.8 °F 81% 30.22 in 10.0 mi North - - N/A   Overcast
6:49 AM 39.2 °F 31.6 °F 33.8 °F 81% 30.22 in 10.0 mi NNE 12.7 mph - N/A   Overcast
6:55 AM 38.8 °F 31.2 °F 34.3 °F 84% 30.21 in 10.0 mi NE 12.7 mph - N/A   Overcast
6:57 AM 39.2 °F 32.0 °F 33.8 °F 81% 30.25 in 10.0 mi North 11.5 mph - N/A Rain Light Rain Showers
7:12 AM 39.2 °F - 33.8 °F 81% 30.23 in 10.0 mi North - - N/A   Overcast
7:15 AM 39.2 °F - 33.8 °F 81% 30.22 in 10.0 mi North - - N/A   Overcast
7:20 AM 39.2 °F - 33.8 °F 81% 30.24 in 10.0 mi North - - N/A Rain Light Rain
7:22 AM 39.2 °F - 33.8 °F 81% 30.23 in 10.0 mi North - - N/A Rain Light Rain
7:35 AM 37.4 °F 27.8 °F 33.8 °F 87% 30.21 in 10.0 mi NNE 17.3 mph - N/A Rain Light Rain
7:55 AM 37.4 °F 28.9 °F 33.8 °F 87% 30.21 in 10.0 mi NNE 13.8 mph - N/A Rain Light Rain
8:55 AM 37.9 °F 32.7 °F 34.5 °F 87% 30.24 in 10.0 mi NNE 6.9 mph - 0.00 in Rain Light Rain
9:39 AM 37.4 °F 28.9 °F 33.8 °F 87% 30.23 in 10.0 mi NNE 13.8 mph - N/A   Overcast
9:49 AM 37.4 °F - 33.8 °F 87% 30.23 in 10.0 mi North - - N/A Rain Light Rain
9:55 AM 37.6 °F 30.0 °F 33.8 °F 86% 30.22 in 5.0 mi North 11.5 mph - 0.02 in Rain Rain
10:16 AM 37.4 °F 30.8 °F 33.8 °F 87% 30.21 in 6.0 mi NNE 9.2 mph - N/A Rain Light Rain
10:26 AM 37.4 °F 31.4 °F 33.8 °F 87% 30.21 in 4.0 mi North 8.1 mph - N/A Rain Heavy Rain
10:32 AM 37.4 °F 30.3 °F 33.8 °F 87% 30.22 in 4.0 mi NNE 10.4 mph - N/A Rain Rain
10:37 AM 37.4 °F 32.1 °F 33.8 °F 87% 30.22 in 3.0 mi NNE 6.9 mph - N/A Rain Rain
10:40 AM 37.4 °F 31.4 °F 33.8 °F 87% 30.21 in 4.0 mi North 8.1 mph - N/A Rain Rain
10:42 AM 37.4 °F 31.4 °F 33.8 °F 87% 30.21 in 4.0 mi North 8.1 mph - N/A Rain Rain
10:43 AM 37.4 °F 30.8 °F 33.8 °F 87% 30.20 in 4.0 mi North 9.2 mph - N/A Rain Rain
10:44 AM 37.4 °F 30.3 °F 33.8 °F 87% 30.20 in 5.0 mi NNE 10.4 mph - N/A Rain Rain
10:45 AM 37.4 °F 30.8 °F 33.8 °F 87% 30.20 in 5.0 mi NNE 9.2 mph - N/A Rain Light Rain
10:51 AM 37.4 °F 31.4 °F 33.8 °F 87% 30.19 in 9.0 mi NNE 8.1 mph - N/A Rain Light Rain
10:54 AM 37.4 °F 29.3 °F 33.8 °F 87% 30.18 in 8.0 mi NE 12.7 mph - N/A Rain Light Rain
10:55 AM 36.5 °F 28.2 °F 33.8 °F 90% 30.18 in 7.0 mi NE 12.7 mph - 0.08 in Rain Light Rain
11:01 AM 35.6 °F 29.2 °F 33.8 °F 93% 30.17 in 4.0 mi NNE 8.1 mph - N/A Rain Rain
11:02 AM 35.6 °F 28.6 °F 33.8 °F 93% 30.18 in 4.0 mi NNE 9.2 mph - N/A Rain Rain
11:07 AM 35.6 °F 27.1 °F 33.8 °F 93% 30.18 in 4.0 mi NNE 12.7 mph - N/A Rain Heavy Rain
11:12 AM 37.4 °F 30.8 °F 33.8 °F 87% 30.18 in 4.0 mi North 9.2 mph - N/A Rain Heavy Rain
11:15 AM 37.4 °F 30.3 °F 33.8 °F 87% 30.18 in 5.0 mi North 10.4 mph - N/A Rain Rain
11:18 AM 37.4 °F 29.8 °F 33.8 °F 87% 30.19 in 6.0 mi NNW 11.5 mph - N/A Rain Rain
11:28 AM 37.4 °F 31.4 °F 33.8 °F 87% 30.19 in 6.0 mi NNW 8.1 mph - N/A Rain Rain
11:33 AM 37.4 °F 31.4 °F 33.8 °F 87% 30.21 in 4.0 mi NNW 8.1 mph - N/A Rain Heavy Rain
11:37 AM 37.4 °F 30.8 °F 33.8 °F 87% 30.20 in 4.0 mi NNW 9.2 mph - N/A Rain Rain
11:38 AM 37.4 °F 30.3 °F 33.8 °F 87% 30.19 in 5.0 mi NNW 10.4 mph - N/A Rain Rain
11:42 AM 37.4 °F 30.3 °F 33.8 °F 87% 30.19 in 6.0 mi North 10.4 mph - N/A Rain Rain
11:48 AM 37.4 °F 31.4 °F 33.8 °F 87% 30.20 in 7.0 mi North 8.1 mph - N/A Rain Rain
11:51 AM 37.4 °F 30.3 °F 33.8 °F 87% 30.20 in 6.0 mi North 10.4 mph - N/A Rain Rain
11:52 AM 37.4 °F 29.8 °F 33.8 °F 87% 30.19 in 5.0 mi North 11.5 mph - N/A Rain Rain
11:55 AM 36.5 °F 28.7 °F 34.5 °F 93% 30.19 in 5.0 mi North 11.5 mph - 0.17 in Rain Heavy Rain
12:02 PM 37.4 °F 29.3 °F 33.8 °F 87% 30.22 in 6.0 mi NW 12.7 mph - N/A Rain Rain
12:06 PM 35.6 °F - 33.8 °F 93% 30.22 in 6.0 mi North - - N/A Rain Rain
12:24 PM 35.6 °F - 33.8 °F 93% 30.21 in 10.0 mi North - - N/A Rain Rain
12:26 PM 35.6 °F - 33.8 °F 93% 30.21 in 10.0 mi North - - N/A Rain Light Rain
12:39 PM 35.6 °F 25.5 °F 32.0 °F 87% 30.20 in 10.0 mi North 17.3 mph - N/A Rain Light Rain
12:42 PM 35.6 °F 25.2 °F 32.0 °F 87% 30.22 in 10.0 mi North 18.4 mph - N/A Rain Light Rain
12:55 PM 36.0 °F 26.7 °F 33.8 °F 92% 30.21 in 4.0 mi NNW 15.0 mph - 0.13 in Rain Heavy Rain
1:30 PM 33.8 °F 23.5 °F 30.2 °F 87% 30.25 in 10.0 mi NNW 16.1 mph - N/A Rain Light Rain
1:32 PM 33.8 °F 23.9 °F 30.2 °F 87% 30.25 in 10.0 mi NNW 15.0 mph - N/A Rain Light Rain
1:55 PM 33.6 °F 22.9 °F 30.7 °F 89% 30.22 in 10.0 mi North 17.3 mph 20.7 mph 0.12 in Rain Rain
2:07 PM 33.8 °F 24.3 °F 30.2 °F 87% 30.24 in 4.0 mi North 13.8 mph - N/A Rain Heavy Rain
2:09 PM 33.8 °F 23.9 °F 30.2 °F 87% 30.24 in 3.0 mi North 15.0 mph - N/A Rain Heavy Rain
2:11 PM 33.8 °F 23.9 °F 30.2 °F 87% 30.23 in 2.5 mi North 15.0 mph - N/A Rain Heavy Rain
2:18 PM 33.8 °F 23.5 °F 30.2 °F 87% 30.25 in 3.0 mi North 16.1 mph 24.2 mph N/A Rain Heavy Rain
2:25 PM 33.8 °F 24.3 °F 30.2 °F 87% 30.25 in 2.5 mi NNW 13.8 mph - N/A Rain Heavy Rain
2:32 PM 33.8 °F 26.4 °F 30.2 °F 87% 30.25 in 2.0 mi North 9.2 mph - N/A Rain Heavy Rain
2:36 PM 33.8 °F 25.3 °F 30.2 °F 87% 30.24 in 3.0 mi North 11.5 mph - N/A Rain Heavy Rain
2:37 PM 33.8 °F 25.3 °F 30.2 °F 87% 30.24 in 3.0 mi North 11.5 mph - N/A Rain Heavy Rain
2:40 PM 33.8 °F 25.3 °F 32.0 °F 93% 30.25 in 3.0 mi North 11.5 mph - N/A Rain Heavy Rain
2:41 PM 33.8 °F 25.3 °F 32.0 °F 93% 30.25 in 4.0 mi North 11.5 mph - N/A Rain Rain
2:43 PM 33.8 °F 25.8 °F 32.0 °F 93% 30.24 in 5.0 mi North 10.4 mph - N/A Rain Rain
2:55 PM 33.6 °F 23.7 °F 31.5 °F 92% 30.26 in 8.0 mi North 15.0 mph 24.2 mph 0.43 in Rain Rain
3:09 PM 33.8 °F 24.3 °F 32.0 °F 93% 30.25 in 6.0 mi North 13.8 mph 21.9 mph N/A Rain Heavy Rain
3:15 PM 33.8 °F 24.8 °F 32.0 °F 93% 30.27 in 8.0 mi NNW 12.7 mph - N/A Rain Heavy Rain
3:18 PM 33.8 °F 25.3 °F 32.0 °F 93% 30.28 in 8.0 mi NNW 11.5 mph - N/A Rain Heavy Rain
3:19 PM 33.8 °F 24.3 °F 32.0 °F 93% 30.27 in 8.0 mi NNW 13.8 mph - N/A Rain Heavy Rain
3:22 PM 33.8 °F 24.3 °F 32.0 °F 93% 30.26 in 7.0 mi North 13.8 mph - N/A Rain Heavy Rain
3:26 PM 33.8 °F 24.8 °F 32.0 °F 93% 30.27 in 5.0 mi North 12.7 mph - N/A Rain Heavy Rain
3:27 PM 33.8 °F 24.8 °F 32.0 °F 93% 30.27 in 5.0 mi NNW 12.7 mph - N/A Rain Heavy Rain
3:37 PM 33.8 °F 24.8 °F 32.0 °F 93% 30.26 in 9.0 mi North 12.7 mph 19.6 mph N/A Rain Light Rain
3:38 PM 33.8 °F 24.3 °F 32.0 °F 93% 30.26 in 9.0 mi North 13.8 mph 19.6 mph N/A Rain Light Rain
3:39 PM 33.8 °F 23.9 °F 32.0 °F 93% 30.25 in 10.0 mi NNE 15.0 mph - N/A Rain Light Rain
3:42 PM 33.8 °F 23.9 °F 32.0 °F 93% 30.25 in 10.0 mi NNE 15.0 mph - N/A Rain Light Rain
3:46 PM 33.8 °F 26.4 °F 32.0 °F 93% 30.26 in 10.0 mi North 9.2 mph - N/A Rain Light Rain
3:47 PM 33.8 °F 26.4 °F 32.0 °F 93% 30.26 in 10.0 mi North 9.2 mph - N/A Rain Light Rain
3:55 PM 34.0 °F 28.8 °F 31.6 °F 91% 30.27 in 8.0 mi North 5.8 mph - 0.13 in Rain Light Rain
4:00 PM 33.8 °F 27.7 °F 32.0 °F 93% 30.27 in 5.0 mi North 6.9 mph - N/A Rain Heavy Rain
4:02 PM 33.8 °F 27.7 °F 32.0 °F 93% 30.26 in 4.0 mi NNE 6.9 mph - N/A Rain Heavy Rain
4:15 PM 33.8 °F 27.0 °F 32.0 °F 93% 30.27 in 5.0 mi North 8.1 mph - N/A Rain Heavy Rain
4:44 PM 33.8 °F 25.8 °F 32.0 °F 93% 30.28 in 9.0 mi North 10.4 mph - N/A Rain Rain
4:45 PM 33.8 °F 26.4 °F 32.0 °F 93% 30.28 in 10.0 mi North 9.2 mph - N/A Rain Rain
4:53 PM 33.8 °F 26.4 °F 32.0 °F 93% 30.29 in 9.0 mi North 9.2 mph - N/A Rain Rain
4:55 PM 34.2 °F 26.2 °F 32.0 °F 92% 30.29 in 9.0 mi North 10.4 mph - 0.16 in Rain Rain
5:07 PM 33.8 °F 25.3 °F 32.0 °F 93% 30.27 in 10.0 mi North 11.5 mph - N/A Rain Rain
5:29 PM 33.8 °F 26.4 °F 32.0 °F 93% 30.28 in 9.0 mi North 9.2 mph - N/A Rain Light Rain
5:55 PM 34.2 °F 28.2 °F 32.2 °F 92% 30.27 in 8.0 mi NE 6.9 mph - 0.06 in Rain Light Rain
6:04 PM 33.8 °F 28.6 °F 32.0 °F 93% 30.27 in 10.0 mi Variable 5.8 mph - N/A Rain Light Rain
6:21 PM 33.8 °F 25.8 °F 32.0 °F 93% 30.25 in 10.0 mi NE 10.4 mph - N/A Rain Light Rain
6:36 PM 33.8 °F 28.6 °F 32.0 °F 93% 30.26 in 10.0 mi ENE 5.8 mph - N/A Rain Light Rain
6:37 PM 33.8 °F 28.6 °F 32.0 °F 93% 30.26 in 10.0 mi ENE 5.8 mph - N/A Rain Light Rain
6:39 PM 33.8 °F 28.6 °F 32.0 °F 93% 30.26 in 10.0 mi East 5.8 mph - N/A Rain Light Rain
6:43 PM 35.6 °F 29.9 °F 32.0 °F 87% 30.25 in 10.0 mi ENE 6.9 mph - N/A   Overcast
6:45 PM 35.6 °F 28.6 °F 32.0 °F 87% 30.25 in 10.0 mi ENE 9.2 mph - N/A   Overcast
6:55 PM 34.9 °F 29.0 °F 32.5 °F 91% 30.25 in 10.0 mi East 6.9 mph - 0.01 in   Overcast
7:16 PM 35.6 °F 29.2 °F 32.0 °F 87% 30.24 in 10.0 mi North 8.1 mph - N/A   Overcast
7:55 PM 35.4 °F 31.5 °F 33.3 °F 92% 30.24 in 10.0 mi NNE 4.6 mph - N/A   Overcast
8:04 PM 35.6 °F 29.9 °F 33.8 °F 93% 30.24 in 10.0 mi North 6.9 mph - N/A   Overcast
8:46 PM 35.6 °F 30.7 °F 33.8 °F 93% 30.21 in 10.0 mi North 5.8 mph - N/A   Overcast
8:55 PM 35.4 °F 29.0 °F 33.1 °F 91% 30.21 in 10.0 mi North 8.1 mph - N/A   Overcast
9:17 PM 35.6 °F 29.2 °F 33.8 °F 93% 30.20 in 10.0 mi North 8.1 mph - N/A   Overcast
9:55 PM 35.6 °F 28.6 °F 32.9 °F 90% 30.19 in 10.0 mi North 9.2 mph - N/A   Overcast
10:12 PM 35.6 °F 29.2 °F 33.8 °F 93% 30.20 in 10.0 mi North 8.1 mph - N/A   Overcast
10:18 PM 35.6 °F 29.9 °F 33.8 °F 93% 30.20 in 10.0 mi North 6.9 mph - N/A Rain Light Rain
10:22 PM 35.6 °F 29.9 °F 33.8 °F 93% 30.19 in 10.0 mi North 6.9 mph - N/A Rain Light Rain
10:55 PM 35.4 °F 29.0 °F 33.1 °F 91% 30.19 in 10.0 mi North 8.1 mph - 0.00 in Rain Light Rain
11:00 PM 35.6 °F 29.9 °F 33.8 °F 93% 30.18 in 10.0 mi North 6.9 mph - N/A   Overcast
11:02 PM 35.6 °F 30.7 °F 33.8 °F 93% 30.18 in 10.0 mi North 5.8 mph - N/A Rain Light Rain
11:30 PM 35.6 °F 29.9 °F 33.8 °F 93% 30.18 in 10.0 mi North 6.9 mph - N/A   Overcast
11:55 PM 35.8 °F 29.4 °F 33.6 °F 92% 30.18 in 10.0 mi NNW 8.1 mph - 0.00 in   Overcast